| time (UTC) | temp F | wind direction | speed MPH | gust MPH | rain 1hr in | rain 24hr in | rain mn in | humidity % | barometer mb |
| 20260503184139 | 61 | 278 | 9.0 | 18.0 | 0.00 | 0.00 | 0.00 | 36 | 1009.4 |
| 20260503183642 | 61 | 275 | 8.0 | 19.0 | 0.00 | 0.00 | 0.00 | 37 | 1009.4 |
| 20260503183145 | 60 | 242 | 8.0 | 20.0 | 0.00 | 0.00 | 0.00 | 37 | 1009.6 |
| 20260503182646 | 60 | 290 | 7.0 | 20.0 | 0.00 | 0.00 | 0.00 | 37 | 1009.8 |
| 20260503182210 | 59 | 260 | 3.0 | 17.0 | 0.00 | 0.00 | 0.00 | 38 | 1009.8 |
| 20260503181632 | 59 | 236 | 9.0 | 16.0 | 0.00 | 0.00 | 0.00 | 37 | 1009.9 |
| 20260503181150 | 59 | 270 | 9.0 | 17.0 | 0.00 | 0.00 | 0.00 | 38 | 1010.0 |
| 20260503180654 | 59 | 250 | 7.0 | 18.0 | 0.00 | 0.00 | 0.00 | 38 | 1010.1 |
| 20260503180138 | 59 | 320 | 9.0 | 18.0 | 0.00 | 0.00 | 0.00 | 38 | 1010.1 |
| 20260503175642 | 60 | 310 | 5.0 | 13.0 | 0.00 | 0.00 | 0.00 | 39 | 1010.1 |
| 20260503175139 | 60 | 226 | 3.0 | 12.0 | 0.00 | 0.00 | 0.00 | 39 | 1010.1 |
| 20260503174644 | 60 | 278 | 6.0 | 10.0 | 0.00 | 0.00 | 0.00 | 39 | 1010.2 |
| 20260503174139 | 59 | 248 | 5.0 | 23.0 | 0.00 | 0.00 | 0.00 | 40 | 1010.3 |
| 20260503173642 | 59 | 255 | 6.0 | 20.0 | 0.00 | 0.00 | 0.00 | 40 | 1010.3 |
| 20260503173147 | 59 | 262 | 7.0 | 14.0 | 0.00 | 0.00 | 0.00 | 41 | 1010.4 |
| 20260503172647 | 59 | 288 | 5.0 | 14.0 | 0.00 | 0.00 | 0.00 | 40 | 1010.3 |
| 20260503172143 | 59 | 297 | 4.0 | 13.0 | 0.00 | 0.00 | 0.00 | 41 | 1010.5 |
| 20260503171646 | 58 | 205 | 4.0 | 13.0 | 0.00 | 0.00 | 0.00 | 41 | 1010.6 |
| 20260503171146 | 57 | 233 | 8.0 | 18.0 | 0.00 | 0.00 | 0.00 | 40 | 1010.7 |
| 20260503170647 | 57 | 268 | 9.0 | 24.0 | 0.00 | 0.00 | 0.00 | 41 | 1010.8 |
| 20260503170131 | 57 | 194 | 9.0 | 24.0 | 0.00 | 0.00 | 0.00 | 41 | 1011.0 |
| 20260503160148 | 55 | 207 | 4.0 | 17.0 | 0.00 | 0.00 | 0.00 | 42 | 1011.7 |
| 20260503150647 | 57 | 305 | 10.0 | 23.0 | 0.00 | 0.00 | 0.00 | 38 | 1011.8 |
| 20260503150131 | 57 | 296 | 9.0 | 17.0 | 0.00 | 0.00 | 0.00 | 39 | 1011.7 |
| 20260503140132 | 52 | 284 | 3.0 | 14.0 | 0.00 | 0.00 | 0.00 | 46 | 1011.9 |
| 20260503131134 | 48 | 316 | 6.0 | 14.0 | 0.00 | 0.00 | 0.00 | 51 | 1012.1 |
| 20260503130637 | 48 | 252 | 7.0 | 16.0 | 0.00 | 0.00 | 0.00 | 51 | 1012.1 |
| 20260503130156 | 47 | 297 | 7.0 | 16.0 | 0.00 | 0.00 | 0.00 | 51 | 1012.2 |
| 20260503120150 | 43 | 258 | 3.0 | 14.0 | 0.00 | 0.00 | 0.00 | 54 | 1012.2 |
| 20260503110640 | 40 | 251 | 1.0 | 4.0 | 0.00 | 0.00 | 0.00 | 56 | 1012.2 |
| 20260503110146 | 40 | 256 | 2.0 | 4.0 | 0.00 | 0.00 | 0.00 | 55 | 1012.1 |
| 20260503100132 | 39 | 249 | 1.0 | 6.0 | 0.00 | 0.00 | 0.00 | 55 | 1012.7 |
| 20260503090140 | 39 | 260 | 1.0 | 5.0 | 0.00 | 0.00 | 0.00 | 54 | 1013.1 |
| 20260503081148 | 39 | 255 | 2.0 | 7.0 | 0.00 | 0.00 | 0.00 | 53 | 1013.3 |
| 20260503080631 | 39 | 278 | 3.0 | 7.0 | 0.00 | 0.00 | 0.00 | 54 | 1013.4 |
| 20260503080134 | 39 | 269 | 3.0 | 7.0 | 0.00 | 0.00 | 0.00 | 54 | 1013.5 |
| 20260503072632 | 38 | 278 | 2.0 | 5.0 | 0.00 | 0.00 | 0.00 | 55 | 1013.6 |
| 20260503072133 | 38 | 276 | 3.0 | 5.0 | 0.00 | 0.00 | 0.00 | 56 | 1013.6 |
| 20260503071639 | 38 | 306 | 2.0 | 6.0 | 0.00 | 0.00 | 0.00 | 56 | 1013.5 |
| 20260503071139 | 38 | 296 | 2.0 | 6.0 | 0.00 | 0.00 | 0.00 | 56 | 1013.5 |
| 20260503070641 | 38 | 277 | 2.0 | 4.0 | 0.00 | 0.00 | 0.00 | 56 | 1013.6 |
| 20260503070143 | 38 | 259 | 2.0 | 7.0 | 0.00 | 0.00 | 0.00 | 56 | 1013.6 |
| 20260503060144 | 39 | 255 | 1.0 | 3.0 | 0.00 | 0.00 | 0.00 | 56 | 1014.0 |
| 20260503054711 | 39 | 265 | 2.0 | 4.0 | 0.00 | 0.00 | 0.00 | 57 | 1014.1 |
| 20260503054149 | 39 | 278 | 1.0 | 4.0 | 0.00 | 0.00 | 0.00 | 57 | 1014.1 |
| 20260503053630 | 39 | 278 | 2.0 | 5.0 | 0.00 | 0.00 | 0.00 | 58 | 1014.2 |
| 20260503053151 | 39 | 264 | 2.0 | 5.0 | 0.00 | 0.00 | 0.00 | 58 | 1014.2 |
| 20260503052634 | 39 | 267 | 0.0 | 3.0 | 0.00 | 0.00 | 0.00 | 58 | 1014.2 |
| 20260503052135 | 39 | 243 | 1.0 | 4.0 | 0.00 | 0.00 | 0.00 | 58 | 1014.3 |
| 20260503051636 | 39 | 248 | 1.0 | 4.0 | 0.00 | 0.00 | 0.00 | 58 | 1014.3 |
| 20260503051137 | 39 | 252 | 1.0 | 2.0 | 0.00 | 0.00 | 0.00 | 58 | 1014.3 |
| 20260503050640 | 39 | 250 | 0.0 | 3.0 | 0.00 | 0.00 | 0.00 | 58 | 1014.3 |
| 20260503050145 | 39 | 264 | 1.0 | 4.0 | 0.00 | 0.00 | 0.00 | 58 | 1014.3 |
| 20260503045649 | 39 | 262 | 2.0 | 4.0 | 0.00 | 0.00 | 0.00 | 59 | 1014.4 |
| 20260503045148 | 39 | 256 | 1.0 | 2.0 | 0.00 | 0.00 | 0.00 | 59 | 1014.3 |
| 20260503044632 | 39 | 242 | 0.0 | 2.0 | 0.00 | 0.00 | 0.00 | 60 | 1014.4 |
| 20260503044133 | 39 | 252 | 1.0 | 4.0 | 0.00 | 0.00 | 0.00 | 60 | 1014.4 |
| 20260503043635 | 39 | 274 | 1.0 | 4.0 | 0.00 | 0.00 | 0.00 | 60 | 1014.4 |
| 20260503043156 | 39 | 247 | 1.0 | 2.0 | 0.00 | 0.00 | 0.00 | 60 | 1014.4 |
| 20260503042706 | 39 | 251 | 0.0 | 2.0 | 0.00 | 0.00 | 0.00 | 60 | 1014.4 |
| 20260503042210 | 39 | 247 | 1.0 | 2.0 | 0.00 | 0.00 | 0.00 | 60 | 1014.4 |
| 20260503041631 | 39 | 245 | 1.0 | 2.0 | 0.00 | 0.00 | 0.00 | 60 | 1014.5 |
| 20260503041149 | 39 | 264 | 0.0 | 2.0 | 0.00 | 0.00 | 0.00 | 60 | 1014.5 |
| 20260503040631 | 39 | 254 | 0.0 | 2.0 | 0.00 | 0.00 | 0.00 | 61 | 1014.5 |
| 20260503040151 | 39 | 234 | 0.0 | 1.0 | 0.00 | 0.00 | 0.00 | 61 | 1014.5 |
| 20260503035653 | 39 | 243 | 0.0 | 1.0 | 0.00 | 0.00 | 0.00 | 61 | 1014.5 |
| 20260503035149 | 39 | 241 | 0.0 | 1.0 | 0.00 | 0.00 | 0.00 | 61 | 1014.6 |
| 20260503034633 | 39 | 240 | 0.0 | 1.0 | 0.00 | 0.00 | 0.00 | 61 | 1014.6 |
| 20260503034131 | 39 | 237 | 0.0 | 1.0 | 0.00 | 0.00 | 0.00 | 61 | 1014.6 |
| 20260503033635 | 39 | 248 | 0.0 | 0.0 | 0.00 | 0.00 | 0.00 | 61 | 1014.6 |
| 20260503033142 | 39 | 249 | 0.0 | 0.0 | 0.00 | 0.00 | 0.00 | 61 | 1014.7 |
| 20260503032645 | 39 | 249 | 0.0 | 0.0 | 0.00 | 0.00 | 0.00 | 61 | 1014.7 |
| 20260503032145 | 39 | 248 | 0.0 | 0.0 | 0.00 | 0.00 | 0.00 | 61 | 1014.7 |
| 20260503031649 | 39 | 248 | 0.0 | 0.0 | 0.00 | 0.00 | 0.00 | 61 | 1014.7 |
| 20260503031150 | 39 | 248 | 0.0 | 0.0 | 0.00 | 0.00 | 0.00 | 61 | 1014.8 |
| 20260503030632 | 39 | 248 | 0.0 | 0.0 | 0.00 | 0.00 | 0.00 | 60 | 1014.7 |
| 20260503030138 | 39 | 248 | 0.0 | 0.0 | 0.00 | 0.00 | 0.00 | 60 | 1014.8 |
| 20260503025708 | 39 | 248 | 0.0 | 0.0 | 0.00 | 0.00 | 0.00 | 60 | 1014.8 |
| 20260503025142 | 39 | 248 | 0.0 | 0.0 | 0.00 | 0.00 | 0.00 | 61 | 1014.8 |
| 20260503024649 | 39 | 248 | 0.0 | 0.0 | 0.00 | 0.00 | 0.00 | 61 | 1014.9 |
| 20260503024148 | 39 | 248 | 0.0 | 0.0 | 0.00 | 0.00 | 0.00 | 60 | 1014.9 |
| 20260503023632 | 39 | 248 | 0.0 | 0.0 | 0.00 | 0.00 | 0.00 | 61 | 1014.9 |
| 20260503023153 | 39 | 248 | 0.0 | 0.0 | 0.00 | 0.00 | 0.00 | 61 | 1015.0 |
| 20260503022634 | 39 | 248 | 0.0 | 0.0 | 0.00 | 0.00 | 0.00 | 60 | 1015.0 |
| 20260503022200 | 39 | 248 | 0.0 | 0.0 | 0.00 | 0.00 | 0.00 | 60 | 1015.0 |
| 20260503021708 | 39 | 248 | 0.0 | 0.0 | 0.00 | 0.00 | 0.00 | 60 | 1015.0 |
| 20260503021138 | 39 | 248 | 0.0 | 0.0 | 0.00 | 0.00 | 0.00 | 60 | 1015.0 |
| 20260503020643 | 39 | 248 | 0.0 | 0.0 | 0.00 | 0.00 | 0.00 | 60 | 1014.9 |
| 20260503020148 | 39 | 248 | 0.0 | 0.0 | 0.00 | 0.00 | 0.00 | 61 | 1014.9 |
| 20260503015632 | 39 | 248 | 0.0 | 0.0 | 0.00 | 0.00 | 0.00 | 61 | 1014.9 |
| 20260503015133 | 39 | 248 | 0.0 | 0.0 | 0.00 | 0.00 | 0.00 | 61 | 1014.8 |
| 20260503014636 | 39 | 248 | 0.0 | 0.0 | 0.00 | 0.00 | 0.00 | 62 | 1014.9 |
| 20260503014130 | 39 | 248 | 0.0 | 0.0 | 0.00 | 0.00 | 0.00 | 60 | 1014.8 |
| 20260503013634 | 39 | 248 | 0.0 | 0.0 | 0.00 | 0.00 | 0.00 | 61 | 1014.8 |
| 20260503013138 | 39 | 248 | 0.0 | 0.0 | 0.00 | 0.00 | 0.00 | 60 | 1014.8 |
| 20260503012642 | 39 | 248 | 0.0 | 0.0 | 0.00 | 0.00 | 0.00 | 60 | 1014.7 |
| 20260503012141 | 40 | 248 | 0.0 | 0.0 | 0.00 | 0.00 | 0.00 | 59 | 1014.7 |
| 20260503011645 | 40 | 248 | 0.0 | 0.0 | 0.00 | 0.00 | 0.00 | 59 | 1014.7 |
| 20260503011210 | 41 | 248 | 0.0 | 0.0 | 0.00 | 0.00 | 0.00 | 59 | 1014.7 |
| 20260503010634 | 41 | 248 | 0.0 | 0.0 | 0.00 | 0.00 | 0.00 | 58 | 1014.7 |
| 20260503010154 | 42 | 248 | 0.0 | 0.0 | 0.00 | 0.00 | 0.00 | 57 | 1014.6 |
| 20260503005656 | 42 | 248 | 0.0 | 0.0 | 0.00 | 0.00 | 0.00 | 54 | 1014.6 |
| 20260503005131 | 43 | 248 | 0.0 | 0.0 | 0.00 | 0.00 | 0.00 | 52 | 1014.7 |
| 20260503004637 | 43 | 248 | 0.0 | 0.0 | 0.00 | 0.00 | 0.00 | 52 | 1014.6 |
| 20260503004139 | 44 | 248 | 0.0 | 0.0 | 0.00 | 0.00 | 0.00 | 50 | 1014.6 |
| 20260503003641 | 44 | 248 | 0.0 | 0.0 | 0.00 | 0.00 | 0.00 | 49 | 1014.6 |
| 20260503003146 | 44 | 248 | 0.0 | 0.0 | 0.00 | 0.00 | 0.00 | 49 | 1014.6 |
| 20260503002649 | 45 | 248 | 0.0 | 0.0 | 0.00 | 0.00 | 0.00 | 48 | 1014.5 |
| 20260503002148 | 45 | 248 | 0.0 | 0.0 | 0.00 | 0.00 | 0.00 | 47 | 1014.5 |
| 20260503001632 | 45 | 278 | 0.0 | 0.0 | 0.00 | 0.00 | 0.00 | 46 | 1014.5 |
| 20260503001133 | 45 | 278 | 0.0 | 2.0 | 0.00 | 0.00 | 0.00 | 46 | 1014.5 |
| 20260503000703 | 45 | 280 | 0.0 | 2.0 | 0.00 | 0.00 | 0.00 | 46 | 1014.5 |
| 20260503000147 | 46 | 266 | 0.0 | 2.0 | 0.00 | 0.00 | 0.00 | 45 | 1014.5 |
| 20260502235631 | 46 | 266 | 1.0 | 2.0 | 0.00 | 0.00 | 0.00 | 44 | 1014.6 |
| 20260502235144 | 46 | 276 | 0.0 | 2.0 | 0.00 | 0.00 | 0.00 | 44 | 1014.5 |
| 20260502234648 | 47 | 277 | 1.0 | 4.0 | 0.00 | 0.00 | 0.00 | 44 | 1014.5 |
| 20260502234147 | 47 | 294 | 2.0 | 5.0 | 0.00 | 0.00 | 0.00 | 43 | 1014.6 |
| 20260502233649 | 47 | 283 | 2.0 | 6.0 | 0.00 | 0.00 | 0.00 | 43 | 1014.6 |
| 20260502233131 | 47 | 280 | 2.0 | 6.0 | 0.00 | 0.00 | 0.00 | 44 | 1014.7 |
| 20260502232634 | 47 | 266 | 2.0 | 6.0 | 0.00 | 0.00 | 0.00 | 42 | 1014.6 |
| 20260502231649 | 47 | 302 | 3.0 | 8.0 | 0.00 | 0.00 | 0.00 | 43 | 1014.6 |
| 20260502231148 | 47 | 284 | 2.0 | 8.0 | 0.00 | 0.00 | 0.00 | 43 | 1014.7 |
| 20260502230631 | 47 | 308 | 2.0 | 6.0 | 0.00 | 0.00 | 0.00 | 43 | 1014.7 |
| 20260502230148 | 47 | 304 | 3.0 | 6.0 | 0.00 | 0.00 | 0.00 | 42 | 1014.7 |
| 20260502225631 | 47 | 243 | 2.0 | 6.0 | 0.00 | 0.00 | 0.00 | 43 | 1014.6 |
| 20260502225147 | 47 | 304 | 1.0 | 6.0 | 0.00 | 0.00 | 0.00 | 45 | 1014.6 |
| 20260502224650 | 47 | 278 | 2.0 | 7.0 | 0.00 | 0.00 | 0.00 | 44 | 1014.6 |
| 20260502224150 | 47 | 302 | 1.0 | 7.0 | 0.00 | 0.00 | 0.00 | 42 | 1014.7 |
| 20260502223633 | 47 | 252 | 1.0 | 7.0 | 0.00 | 0.00 | 0.00 | 43 | 1014.7 |
| 20260502223137 | 47 | 319 | 3.0 | 8.0 | 0.00 | 0.00 | 0.00 | 44 | 1014.7 |
| 20260502222640 | 46 | 276 | 3.0 | 12.0 | 0.00 | 0.00 | 0.00 | 44 | 1014.7 |
| 20260502222139 | 47 | 299 | 3.0 | 7.0 | 0.00 | 0.00 | 0.00 | 44 | 1014.7 |
| 20260502221642 | 46 | 307 | 2.0 | 7.0 | 0.00 | 0.00 | 0.00 | 44 | 1014.7 |
| 20260502221141 | 47 | 216 | 2.0 | 9.0 | 0.00 | 0.00 | 0.00 | 45 | 1014.7 |
| 20260502220645 | 47 | 330 | 5.0 | 9.0 | 0.00 | 0.00 | 0.00 | 43 | 1014.6 |
| 20260502220147 | 47 | 293 | 1.0 | 7.0 | 0.00 | 0.00 | 0.00 | 42 | 1014.6 |
| 20260502215649 | 47 | 271 | 1.0 | 7.0 | 0.00 | 0.00 | 0.00 | 42 | 1014.6 |
| 20260502215149 | 46 | 343 | 2.0 | 7.0 | 0.00 | 0.00 | 0.00 | 43 | 1014.7 |
| 20260502214652 | 46 | 289 | 1.0 | 12.0 | 0.00 | 0.00 | 0.00 | 45 | 1014.7 |
| 20260502214130 | 46 | 283 | 4.0 | 12.0 | 0.00 | 0.00 | 0.00 | 44 | 1014.6 |
| 20260502213634 | 46 | 307 | 2.0 | 8.0 | 0.00 | 0.00 | 0.00 | 45 | 1014.7 |
| 20260502213137 | 46 | 279 | 4.0 | 7.0 | 0.00 | 0.00 | 0.00 | 44 | 1014.6 |
| 20260502212637 | 46 | 248 | 2.0 | 9.0 | 0.00 | 0.00 | 0.00 | 44 | 1014.6 |
| 20260502212138 | 46 | 302 | 5.0 | 9.0 | 0.00 | 0.00 | 0.00 | 42 | 1014.7 |
| 20260502211642 | 47 | 326 | 5.0 | 9.0 | 0.00 | 0.00 | 0.00 | 42 | 1014.7 |
| 20260502211143 | 47 | 262 | 2.0 | 15.0 | 0.00 | 0.00 | 0.00 | 43 | 1014.6 |
| 20260502210646 | 46 | 295 | 7.0 | 15.0 | 0.00 | 0.00 | 0.00 | 42 | 1014.8 |
| 20260502210149 | 46 | 304 | 6.0 | 13.0 | 0.00 | 0.00 | 0.00 | 43 | 1014.8 |
| 20260502205632 | 46 | 279 | 3.0 | 12.0 | 0.00 | 0.00 | 0.00 | 43 | 1014.8 |
| 20260502205132 | 46 | 284 | 6.0 | 12.0 | 0.00 | 0.00 | 0.00 | 43 | 1014.8 |
| 20260502204634 | 46 | 281 | 4.0 | 14.0 | 0.00 | 0.00 | 0.00 | 43 | 1014.8 |
| 20260502204154 | 46 | 302 | 5.0 | 14.0 | 0.00 | 0.00 | 0.00 | 43 | 1014.7 |
| 20260502203657 | 46 | 297 | 4.0 | 10.0 | 0.00 | 0.00 | 0.00 | 43 | 1014.8 |
| 20260502203156 | 46 | 276 | 6.0 | 12.0 | 0.00 | 0.00 | 0.00 | 43 | 1014.9 |
| 20260502202639 | 46 | 300 | 6.0 | 13.0 | 0.00 | 0.00 | 0.00 | 44 | 1015.0 |
| 20260502202205 | 46 | 295 | 5.0 | 9.0 | 0.00 | 0.00 | 0.00 | 43 | 1015.0 |
| 20260502201646 | 45 | 310 | 4.0 | 12.0 | 0.00 | 0.00 | 0.00 | 44 | 1015.1 |
| 20260502201209 | 45 | 255 | 6.0 | 13.0 | 0.00 | 0.00 | 0.00 | 43 | 1015.1 |
| 20260502200650 | 46 | 300 | 3.0 | 13.0 | 0.00 | 0.00 | 0.00 | 44 | 1015.2 |
| 20260502200147 | 46 | 319 | 8.0 | 13.0 | 0.00 | 0.00 | 0.00 | 42 | 1015.2 |
| 20260502195650 | 46 | 15 | 3.0 | 9.0 | 0.00 | 0.00 | 0.00 | 42 | 1015.3 |
| 20260502195147 | 45 | 294 | 2.0 | 9.0 | 0.00 | 0.00 | 0.00 | 43 | 1015.3 |
| 20260502194650 | 45 | 313 | 4.0 | 9.0 | 0.00 | 0.00 | 0.00 | 44 | 1015.4 |
| 20260502194148 | 45 | 8 | 4.0 | 12.0 | 0.00 | 0.00 | 0.00 | 43 | 1015.5 |
| 20260502193633 | 45 | 356 | 5.0 | 10.0 | 0.00 | 0.00 | 0.00 | 43 | 1015.5 |
| 20260502193200 | 45 | 278 | 7.0 | 10.0 | 0.00 | 0.00 | 0.00 | 42 | 1015.5 |
| 20260502192643 | 45 | 287 | 2.0 | 12.0 | 0.00 | 0.00 | 0.00 | 45 | 1015.5 |
| 20260502192142 | 45 | 259 | 4.0 | 9.0 | 0.00 | 0.00 | 0.00 | 44 | 1015.6 |
| 20260502191643 | 45 | 290 | 4.0 | 9.0 | 0.00 | 0.00 | 0.00 | 42 | 1015.6 |
| 20260502191143 | 45 | 270 | 4.0 | 9.0 | 0.00 | 0.00 | 0.00 | 40 | 1015.6 |
| 20260502190712 | 45 | 289 | 1.0 | 9.0 | 0.00 | 0.00 | 0.00 | 45 | 1015.6 |
| 20260502190147 | 45 | 253 | 6.0 | 12.0 | 0.00 | 0.00 | 0.00 | 43 | 1015.7 |
| 20260502185650 | 45 | 269 | 5.0 | 12.0 | 0.00 | 0.00 | 0.00 | 43 | 1015.8 |
| 20260502185148 | 45 | 278 | 4.0 | 11.0 | 0.00 | 0.00 | 0.00 | 43 | 1015.8 |
| 20260502184649 | 45 | 284 | 6.0 | 11.0 | 0.00 | 0.00 | 0.00 | 40 | 1015.8 |